Regional Weather Roundup
Issued by NWS Charleston, SC

Home | Current Version | Previous Version | Text Only | Print | Product List | Glossary On
Versions: 1 2 3 4 5 6 7 8 9 10 11 12 13 14 15 16 17 18 19 20 21 22 23 24 25 26 27 28 29 30 31 32 33 34 35 36 37 38 39 40 41 42 43 44 45 46 47 48 49 50
000
ASUS42 KCHS 251827
RWRCHS

REGIONAL WEATHER ROUNDUP
NATIONAL WEATHER SERVICE CHARLESTON SC
200 PM EDT MON MAY 25 2015

NOTE: "FAIR" INDICATES FEW OR NO CLOUDS BELOW 12,000 FEET WITH NO
SIGNIFICANT WEATHER AND/OR OBSTRUCTIONS TO VISIBILITY.

NOT ALL STATIONS ARE QUALITY CONTROLLED BY THE NATIONAL
WEATHER SERVICE. USE DATA WITH CAUTION...ESPECIALLY
DEWPOINT OBSERVATIONS.

SCZ027-030-031-034>040-042>050-251900-
...SOUTHEAST SOUTH CAROLINA...

CITY           SKY/WX    TMP DP  RH WIND       PRES   REMARKS
N CHARLESTON   PTSUNNY   79  65  62 SE10      30.30F
6HR MIN TEMP:  72; 6HR MAX TEMP:  81;

WATERFRONT PAR   N/A     76  67  73 E12       30.27F
MOUNT PLEASANT FAIR      79  66  65 E7        30.30F
JOHNS ISLAND   MOCLDY    79  68  69 E8G16     30.30F
PINOPOLIS        N/A     84  64  51 CALM      30.23R
MONCKS CORNER  CLOUDY    82  64  54 SE8       30.29F
SUMMERVILLE    MOCLDY    82  68  61 SE6       30.30F
BEAUFORT MCAS  CLOUDY    80  67  64 E9        30.28F
6HR MIN TEMP:  76; 6HR MAX TEMP:  80;

BEAUFORT ARPT  MOCLDY    81  68  65 SE9       30.28F
HILTON HEAD IS MOSUNNY   81  72  74 NE7       30.30S
WALTERBORO     CLOUDY    81  64  57 SE10      30.29F
ALLENDALE      MOCLDY    81  68  65 SE10      30.27F

...SOUTHERN MIDLANDS AND PEE DEE...

CITY           SKY/WX    TMP DP  RH WIND       PRES   REMARKS
GEORGETOWN     NOT AVBL
KINGSTREE      NOT AVBL
ORANGEBURG     CLOUDY    81  63  54 SE6       30.29F
6HR MIN TEMP:  67; 6HR MAX TEMP:  81;

BARNWELL       MOCLDY    82  66  57 E7        30.28F
AIKEN          MOCLDY    82  57  42 SE7       30.31F
MANNING        CLOUDY    81  59  47 SW8       30.30F
COLUMBIA       CLOUDY    81  61  50 SE8       30.28F
6HR MIN TEMP:  66; 6HR MAX TEMP:  83;

SUMTER         PTSUNNY   82  61  48 S7        30.28F
6HR MIN TEMP:  65; 6HR MAX TEMP:  84;

FLORENCE       MOSUNNY   86  60  41 SE12      30.29F
6HR MIN TEMP:  66; 6HR MAX TEMP:  86;

MYRTLE BEACH   MOSUNNY   81  63  54 SE12      30.34F
N MYRTLE BEACH SUNNY     78  62  57 SE10      30.33F
6HR MIN TEMP:  74; 6HR MAX TEMP:  78;


$$

GAZ063-065-086>088-099>101-113>116-118-119-134>141-150-251900-
...SOUTHEAST GEORGIA...

CITY           SKY/WX    TMP DP  RH WIND       PRES   REMARKS
SAVANNAH ARPT  PTSUNNY   82  67  60 SE13      30.27S
6HR MIN TEMP:  75; 6HR MAX TEMP:  84; 6HR PCP: TRACE;

HUNTER AAF     PTSUNNY   82  70  66 E14       30.25S
6HR MIN TEMP:  76; 6HR MAX TEMP:  82; 6HR PCP: TRACE;

FORT STEWART   NOT AVBL
STATESBORO     DRIZZLE   79  72  78 SE6       30.25F
SYLVANIA       MOCLDY    87  71  59 SE7       30.26F HX  92
CLAXTON        CLOUDY    79  73  83 SE6       30.25F

...CSRA...CENTRAL AND FAR SOUTHEAST GEORGIA...

CITY           SKY/WX    TMP DP  RH WIND       PRES   REMARKS
THOMSON        PTSUNNY   85  69  58 SE5       30.30F
AUGUSTA-BUSH   MOSUNNY   85  65  51 E9        30.26F
6HR MIN TEMP:  67; 6HR MAX TEMP:  85;

AUGUSTA-DANIEL PTSUNNY   84  63  49 SE8       30.28F
SWAINSBORO     FAIR      90  70  51 SE9       30.23F HX  95
VIDALIA        SUNNY     88  68  51 E12       30.22F HX  91
EASTMAN        FAIR      88  70  54 E6        30.23F HX  93
HAZLEHURST     FAIR      87  71  60 E8        30.20F HX  92
ALMA           RAIN      80  72  76 S10       30.22F
6HR MIN TEMP:  75; 6HR MAX TEMP:  88;

WAYCROSS       PTSUNNY   82  74  77 S10       30.22S
JESUP          FAIR      86  72  62 E10       30.23F HX  92
BAXLEY         PTSUNNY   82  73  74 E9        30.21F
BRUNSWICK      CLOUDY    82  70  65 E12       30.25F
SAINT SIMONS   NOT AVBL

$$

SCZ027-028-034-036>038-045-046-048>050-GAZ119-141-251900-
...LAKE AND SUPPLEMENTAL COASTAL OBSERVATIONS...

STATION/POSITION TIME  TEMP    WIND        PRES    WAVE   SWELL
                       AIR SEA DIR/SP/G            HT/PER HT/PER/DIR
                 (UTC) (F)     (DEG/KT/KT) (MB)    (FT/S) (FT/S/D)
UPR LAKE MARION  NOT AVBL
WINYAH BAY       1745   76     100/  9     1026.0S
LAKE MURRAY      1700   82      CALM  /  1 1025.1F
ACE BASIN NERRS  1730   80                   N/A
FORT PULASKI     1800   77 77   70/ 11/ 13 1025.8F
SAPELO ISLAND    1700   80     110/  7     1025.0S

$$

ANZ835-935-AMZ111-154-330-350-352-354-370-450-454-472-251900-
...C-MAN AND BUOY OBSERVATIONS...

STATION/POSITION TIME  TEMP    WIND        PRES    WAVE   SWELL
                       AIR SEA DIR/SP/G            HT/PER HT/PER/DIR
                 (UTC) (F)     (DEG/KT/KT) (MB)    (FT/S) (FT/S/D)
BUOY 41004       1750   76 76   90/ 10/ 14 1025.6F   4/ 7   3/ 7
BUOY 41008       1750   76 76  110/ 10/ 12 1024.8F   4/ 8   3/ 90/ 8
FOLLY BEACH CMAN 1800   76      90/ 11/ 13 1026.3F
CAPERS NEARSHORE 1708   75      90/ 10/ 14 1026.7F
FRIPP NEARSHORE  1700   78      80/ 12/ 14 1025.1F


STATION/POSITION TIME  TEMP    WIND        PRES    WAVE   SWELL
                       AIR SEA DIR/SP/G            HT/PER HT/PER/DIR
                 (UTC) (F)     (DEG/KT/KT) (MB)    (FT/S) (FT/S/D)
5E ST. MARYS GA  1721      79                N/A     4/ 8
FRYING PAN BUOY  1750   75 75  130/  8/ 10 1027.7F   3/ 7   3/100/ 7
BUOY 41025       1750   74 78  150/  8/ 12 1028.3F   2/ 8   2/ 80/ 8
CAPE LOOKOUT NC  1800   74     150/  7/  8 1027.4F
BUOY 41002       1750   74 74  120/ 14/ 16 1027.2F   3/ 6   2/ 90/ 6
BUOY 41010       1720   79 81  110/ 12/ 14 1024.2F
ST AUGUSTINE FL  1800   78 78  110/ 11/ 12 1024.5F


$$



USA.gov is the U.S. government's official web portal to all federal, state and local government web resources and services.